Wind_Speed
7 5 5 6 5 4 5 5 6 6 6 6 6 6 6 6 7 7 8 9 10 10 12 13 14 16 17 17 18 20 21 20 20 20 23 27 26 25 25 25 26 27 28 27 26 27 27 25 24 22 20 18 17 17 16 15 15 15 15 16 17 16 15 13 13 13 13 13 12 12 12 13 12 12 12 11 11 11 10 9 8 8 7 7 6
7 5 3 3 3 3 3 3 4 5 5 5 5 5 6 6 7 7 9 10 10 10 11 11 11 13 16 18 17 17 19 20 19 19 22 25 25 25 25 25 25 26 27 27 27 28 28 26 25 23 21 19 18 17 17 16 15 15 15 15 16 16 15 14 14 14 14 13 13 12 12 13 12 12 12 12 11 11 10 9 8 8 8 8 7
4 4 2 2 3 4 3 2 3 4 5 5 5 6 6 7 8 8 9 10 11 11 12 12 12 12 14 17 18 17 18 19 19 19 19 20 22 24 25 25 25 25 26 27 27 28 27 25 24 23 22 20 19 18 18 17 16 15 15 15 16 16 16 15 15 14 14 14 13 12 12 13 12 11 12 11 11 11 10 9 8 8 8 9 8
1 2 2 2 2 2 2 3 3 4 5 6 6 7 8 8 9 9 10 11 11 13 13 13 13 14 14 14 16 18 20 20 20 21 20 19 21 23 24 25 25 24 25 26 26 26 25 24 24 24 22 21 20 18 18 17 17 16 16 15 15 16 16 15 15 15 14 14 13 12 13 13 12 11 12 11 11 11 11 10 8 8 9 9 8
2 2 2 2 1 1 2 3 5 5 6 8 8 8 9 9 10 10 10 11 11 12 13 14 13 14 15 14 15 17 20 22 22 23 23 22 23 25 24 25 26 25 24 24 23 24 23 22 23 24 23 21 20 19 18 18 17 17 17 16 16 16 16 16 16 15 14 14 13 13 13 13 12 12 12 11 11 12 11 10 9 9 9 9 8
2 2 2 1 1 1 2 4 5 7 8 8 9 9 9 9 10 10 11 11 12 13 13 13 14 14 15 16 16 18 19 20 22 24 25 25 25 26 26 24 25 25 23 22 22 22 23 22 22 23 23 21 19 19 19 18 18 17 18 17 17 16 16 16 16 15 14 14 13 13 13 13 12 12 11 12 12 12 12 10 10 10 9 9 9
2 1 1 1 2 3 4 5 6 8 9 9 9 9 9 10 10 11 12 12 12 13 14 14 14 15 16 17 17 18 18 19 21 23 25 26 25 25 25 24 24 23 22 22 21 21 22 22 23 23 24 22 20 19 19 19 19 18 18 19 18 17 17 16 16 16 15 14 14 14 14 14 13 12 12 12 12 12 12 11 11 10 10 9 9
2 1 1 1 2 4 5 6 8 8 9 9 9 9 10 10 11 12 13 13 14 14 15 15 15 16 17 18 18 18 19 20 20 22 24 25 24 24 24 24 23 21 21 22 21 20 20 21 22 23 24 23 22 21 20 20 20 19 19 19 19 18 17 16 16 16 15 14 14 14 14 14 13 12 12 12 12 12 12 11 11 11 10 10 9
2 2 2 2 3 4 6 7 8 8 9 9 9 10 11 11 12 14 15 16 15 16 16 16 16 17 18 18 19 19 19 20 21 21 22 22 23 23 23 24 23 21 20 21 21 20 19 19 21 23 24 24 23 22 21 21 21 20 19 19 20 19 18 17 16 16 15 14 15 15 15 15 14 13 12 12 13 13 12 12 12 12 11 10 9
2 2 2 3 4 4 6 7 7 8 9 9 9 10 12 13 14 15 16 17 16 16 16 17 17 18 18 19 19 19 18 19 20 20 20 21 22 22 23 23 22 21 21 20 20 20 18 18 21 23 23 23 23 23 23 23 22 21 20 19 19 19 18 18 17 16 16 15 15 16 16 16 16 14 13 13 13 13 13 12 12 12 11 11 10
2 3 3 4 5 5 6 8 7 8 8 10 11 11 12 14 14 14 15 15 15 15 14 15 17 17 17 18 18 17 17 17 18 19 19 20 20 20 21 21 21 21 21 21 21 20 19 20 20 22 23 23 23 24 25 24 23 22 21 20 19 19 19 19 18 16 16 16 16 17 17 17 17 16 14 13 13 14 13 13 13 13 12 12 11
2 4 4 5 5 6 7 8 8 8 9 10 12 13 13 13 13 12 12 13 14 14 13 14 15 15 15 15 16 16 15 16 17 18 18 18 18 19 19 19 19 19 20 22 22 20 20 20 19 20 23 24 23 24 24 25 25 24 22 21 20 20 20 20 19 17 17 17 17 17 17 18 18 17 16 14 14 14 14 14 14 13 13 13 12
3 4 6 6 7 7 8 8 9 9 10 10 12 13 13 12 11 10 10 11 12 13 12 13 14 14 14 13 14 15 15 15 15 16 17 17 17 17 17 17 18 19 20 21 21 22 21 20 20 20 21 23 23 24 24 24 25 24 23 21 20 20 20 20 20 18 17 17 18 18 18 18 19 18 17 15 15 15 15 15 14 14 14 14 13
4 5 7 8 8 8 8 8 9 9 10 11 12 13 13 12 11 10 10 10 11 11 11 12 13 14 14 13 12 13 14 14 14 15 17 18 17 16 16 16 17 18 19 18 19 21 21 19 21 20 21 23 23 24 24 24 24 24 23 22 21 21 21 20 20 19 18 18 18 18 18 19 19 19 18 17 16 15 15 15 15 15 15 15 15
5 6 7 8 8 8 8 9 9 9 11 12 13 13 12 12 12 11 11 11 12 12 11 11 11 13 14 15 13 13 14 14 14 15 17 17 17 17 16 16 17 17 17 17 17 19 19 18 20 20 21 24 23 22 22 23 23 24 24 24 24 22 22 21 20 19 19 18 18 18 18 19 19 20 19 18 17 16 16 16 16 16 16 16 16
6 7 8 8 8 9 9 9 10 10 11 12 13 13 13 13 12 12 12 12 12 13 13 12 12 12 13 14 15 15 15 16 15 15 15 16 16 17 17 17 17 17 17 18 18 19 19 19 19 18 19 22 23 22 24 23 22 24 25 26 25 22 21 21 20 20 19 19 19 19 18 19 20 20 20 19 18 17 16 16 17 17 17 17 17
7 8 8 8 9 9 10 10 10 10 11 12 12 12 13 13 12 12 13 13 13 14 14 14 14 14 14 15 16 16 16 17 17 14 14 16 17 16 17 17 18 17 17 17 19 20 20 20 20 19 19 19 20 22 24 23 22 23 24 25 25 24 22 21 21 20 20 20 19 20 19 19 20 21 21 20 19 18 18 17 17 18 18 18 18
8 8 8 8 9 9 9 9 9 10 10 11 11 11 12 12 12 13 13 14 14 14 15 15 16 16 16 16 16 17 17 17 18 17 15 16 17 18 17 17 17 19 19 18 18 19 20 20 20 20 20 19 19 20 21 21 21 22 23 25 27 27 25 22 23 22 21 21 20 20 20 20 21 21 21 21 20 19 19 19 18 18 19 19 19
7 7 7 7 8 8 9 9 9 9 10 10 11 12 12 13 13 14 14 15 16 16 16 16 16 17 18 18 18 19 19 18 19 20 19 16 15 18 19 19 18 18 20 20 19 19 19 19 20 21 21 20 19 19 20 20 20 21 23 24 25 27 27 24 24 24 23 23 22 21 21 21 21 22 22 21 20 21 20 20 19 19 20 20 20
7 7 7 8 8 9 9 9 9 10 10 10 11 11 13 14 15 15 16 17 17 18 18 18 18 18 18 19 20 20 21 21 20 21 22 21 18 16 18 20 20 19 19 19 20 20 20 19 19 20 21 21 20 19 20 20 19 19 20 22 22 24 27 26 24 25 25 24 24 23 22 22 22 22 22 22 21 21 21 21 20 21 21 21 21
8 7 8 8 9 9 10 10 10 10 10 10 11 12 13 15 16 17 17 18 19 19 19 20 20 20 20 21 21 22 22 22 23 23 25 26 24 21 20 21 22 21 20 19 19 20 20 20 19 19 20 21 21 20 20 20 20 20 20 21 21 21 23 26 26 26 27 26 25 25 23 21 22 23 22 22 22 22 22 22 21 21 21 21 21
8 8 8 9 9 9 9 10 10 11 11 11 12 14 15 16 17 18 18 19 19 20 21 21 21 22 23 23 23 23 23 23 24 26 26 27 28 27 26 26 25 23 21 20 21 21 21 21 20 20 20 21 21 21 21 21 21 21 20 21 21 20 20 24 28 29 28 28 28 27 24 23 24 25 24 23 23 23 23 23 23 23 22 22 22
8 8 8 9 10 10 10 10 10 11 12 13 14 15 16 17 18 19 19 20 20 21 22 22 23 23 24 25 25 25 26 26 26 27 28 30 31 31 29 29 29 27 24 22 22 22 22 22 22 21 20 20 20 20 21 20 20 20 20 21 21 21 20 22 26 30 31 30 29 29 27 25 25 26 27 25 24 23 23 23 24 24 23 23 22
8 8 9 10 10 10 11 11 11 12 13 14 15 16 17 18 19 19 20 21 22 23 23 24 24 24 25 25 26 27 28 29 29 30 31 32 33 34 33 32 31 29 27 26 24 23 23 23 23 23 22 21 21 22 21 19 19 20 21 22 22 22 22 21 23 28 33 33 31 31 30 27 25 27 28 28 27 25 24 24 25 25 25 24 23
8 9 10 11 11 11 11 11 12 12 13 15 16 17 18 18 19 20 21 22 23 24 24 25 25 25 26 26 26 27 28 29 30 31 32 33 34 35 35 34 34 32 30 28 27 25 23 22 21 21 23 24 24 24 23 21 20 22 23 23 23 23 24 23 23 26 32 36 35 33 32 30 28 29 30 30 31 29 26 26 26 26 26 25 24
9 10 11 11 11 11 11 11 12 13 14 15 16 17 18 19 21 22 23 24 24 25 25 25 26 26 26 27 27 28 28 29 30 31 32 33 34 36 36 36 35 34 33 31 29 28 26 24 21 20 22 24 25 26 25 24 23 23 23 24 24 23 25 25 24 24 27 34 38 35 32 31 31 31 31 32 33 32 30 29 28 27 27 26 25
10 11 11 11 11 11 11 11 12 13 14 15 16 18 20 21 23 24 25 26 26 26 26 26 27 27 27 27 28 28 29 29 30 31 33 34 35 36 38 39 38 37 35 33 31 29 29 28 25 23 24 25 25 26 27 27 25 23 23 25 25 24 24 24 24 24 24 29 36 37 34 34 35 34 32 32 33 32 32 32 30 29 28 28 27
11 11 11 11 11 11 11 12 13 13 15 16 18 20 22 24 26 26 27 27 27 27 27 27 27 27 28 28 28 29 29 30 30 32 33 34 35 36 37 40 41 41 40 37 34 30 30 31 29 26 27 29 28 28 29 29 27 26 26 26 27 26 25 24 24 24 24 26 32 37 38 37 37 37 35 33 32 33 35 35 33 31 30 29 29
11 12 12 11 11 11 12 12 13 15 16 18 20 22 25 27 28 29 28 28 28 28 27 27 27 26 27 27 27 28 28 28 29 30 31 32 33 35 36 38 40 43 43 42 40 34 32 32 32 30 29 31 33 32 31 31 29 29 28 26 27 27 27 26 25 25 25 25 27 34 40 40 39 38 37 35 34 36 38 38 36 34 32 31 31
12 12 12 12 11 12 12 13 15 17 19 21 23 26 28 30 30 30 29 27 26 25 24 24 23 23 23 23 24 24 24 25 25 26 27 28 29 30 32 34 36 39 42 44 43 38 37 36 34 33 33 32 34 35 34 34 33 31 30 29 28 28 29 29 27 27 27 26 26 30 37 42 41 39 39 38 37 38 40 40 39 37 35 34 33
13 12 12 12 12 13 13 15 17 19 21 23 26 29 31 31 30 27 25 24 22 21 21 21 20 21 21 22 23 23 23 23 24 25 26 26 27 28 29 30 32 34 37 40 41 36 36 39 36 34 36 36 36 37 37 36 36 36 36 34 30 29 30 30 30 29 28 28 27 28 33 40 43 42 41 41 41 40 41 41 40 39 37 36 35
13 13 13 12 13 14 15 17 19 21 23 26 28 30 30 28 26 23 21 20 20 20 21 21 22 22 23 24 24 25 25 25 26 27 27 28 28 29 30 30 31 33 35 37 40 36 32 37 38 34 35 38 37 38 39 37 36 38 38 37 33 31 31 31 31 31 30 29 29 28 30 35 42 45 42 42 44 43 42 42 40 39 39 38 37
14 14 14 14 14 16 17 19 21 23 25 27 29 29 27 24 21 20 20 20 21 22 22 23 23 24 24 25 25 26 27 27 27 28 29 29 30 30 31 32 32 33 35 37 40 39 33 33 37 35 33 36 37 37 39 40 38 37 39 38 35 33 32 32 32 33 32 32 30 29 29 32 38 45 46 44 45 46 45 43 42 41 40 40 39
15 15 15 15 16 17 19 21 23 24 26 27 27 25 22 20 19 20 21 21 22 22 23 24 24 24 25 25 26 26 27 28 28 29 29 30 30 31 31 33 33 33 35 37 39 41 38 34 35 37 34 34 35 35 36 39 40 38 39 38 37 35 34 34 35 34 33 33 32 31 30 30 34 41 48 48 45 47 48 45 44 44 43 42 41
15 15 15 16 17 18 20 22 24 25 25 25 23 21 20 19 20 21 21 22 23 23 24 24 25 25 26 26 27 27 28 29 29 30 31 31 31 32 32 33 34 34 35 37 39 41 41 37 35 37 37 35 35 35 34 36 38 39 39 38 38 37 35 36 37 36 34 34 33 33 32 31 32 36 45 50 47 47 50 49 46 44 45 44 43
15 16 16 17 18 19 21 23 24 24 22 21 19 19 19 19 20 21 22 23 23 24 24 25 25 26 27 27 28 28 29 30 30 31 31 31 32 33 33 33 34 35 35 36 39 40 42 41 37 37 38 38 36 35 35 35 35 37 39 38 38 37 35 36 38 38 37 35 33 33 33 33 32 33 40 49 50 47 50 51 49 46 46 46 45
15 16 16 17 18 20 21 23 22 21 19 18 18 18 19 20 21 22 22 23 23 24 25 25 26 26 27 28 28 29 30 31 32 32 32 33 33 34 35 35 35 35 35 36 38 39 41 43 41 38 38 40 39 36 35 36 36 36 36 37 38 36 33 35 38 39 38 36 34 34 34 34 33 33 37 45 52 50 49 51 51 49 48 46 45
15 15 16 17 18 20 21 21 19 18 17 17 17 18 19 20 21 21 22 22 23 23 24 25 25 26 27 28 29 31 32 33 34 35 35 35 35 36 36 37 37 37 37 37 38 39 40 41 41 40 38 39 41 38 34 35 37 37 36 36 36 36 35 36 37 38 38 37 35 34 33 33 33 33 34 39 49 53 50 50 53 52 50 49 47
14 15 16 17 18 19 19 18 16 16 16 16 17 18 18 19 20 20 20 21 22 22 23 24 25 27 28 29 31 32 33 35 36 37 37 37 37 37 38 38 39 39 39 39 39 40 41 41 41 41 40 38 40 39 36 35 36 36 36 37 37 36 36 36 36 36 35 35 35 34 33 32 32 33 33 35 43 50 49 50 56 56 52 50 49
13 14 15 16 17 17 16 15 14 14 15 15 16 17 17 18 18 19 19 20 21 21 23 24 26 27 29 29 31 32 33 34 35 37 38 39 38 38 38 38 38 39 40 40 41 41 42 43 43 43 42 40 39 39 38 36 36 34 33 36 38 36 35 35 36 35 34 34 35 35 34 33 32 33 33 35 39 44 47 49 54 56 55 52 50
12 13 13 14 13 13 13 12 12 13 13 14 15 16 17 17 18 18 18 19 21 22 23 25 26 28 28 29 30 30 30 31 32 34 35 37 38 38 38 38 38 38 38 39 40 41 42 43 43 43 44 43 42 41 40 38 37 36 33 35 38 38 36 37 37 36 35 35 36 36 34 33 33 32 32 34 36 38 42 45 49 53 54 52 51
10 10 10 10 10 11 11 11 12 12 12 13 14 15 16 17 17 18 18 19 21 22 24 25 26 27 27 28 29 29 29 29 29 31 32 34 36 37 38 39 39 39 39 39 39 40 41 42 42 43 44 45 44 44 44 41 38 39 37 35 36 38 37 39 40 37 34 35 36 36 34 32 32 32 30 32 35 37 38 41 45 50 52 53 53
8 7 7 7 8 10 10 11 11 11 12 13 14 15 16 16 16 17 18 19 20 22 23 23 24 25 26 27 28 28 28 29 29 31 32 34 35 35 35 36 37 38 39 40 40 40 41 41 41 42 43 44 44 44 45 44 41 40 39 37 36 37 38 40 42 38 33 33 35 35 34 32 31 31 30 28 30 35 39 39 39 44 48 52 54
5 4 5 6 8 9 10 10 11 11 12 13 14 15 16 16 16 17 18 19 20 21 22 23 24 25 25 26 27 28 29 30 31 33 34 35 35 33 32 32 32 34 35 37 39 40 41 41 41 41 41 42 42 41 42 44 44 41 40 37 36 36 37 40 42 39 33 32 32 31 31 32 31 31 30 28 27 30 35 37 38 39 44 48 52
2 3 5 7 8 8 9 9 10 11 12 13 14 15 15 15 16 17 18 19 20 21 22 22 23 24 25 27 28 29 30 32 34 36 37 38 37 34 31 30 29 30 31 32 35 36 38 39 39 39 39 39 40 39 39 41 43 43 41 37 34 34 36 38 40 39 34 32 31 29 29 30 30 29 29 27 26 27 30 35 39 40 40 43 49
2 3 5 6 7 7 8 9 10 10 12 13 13 14 15 15 16 17 19 20 20 21 22 23 23 24 25 27 28 30 32 34 36 38 40 40 40 38 36 34 32 32 32 33 34 34 35 35 36 36 37 37 39 39 39 39 40 41 41 38 33 31 33 36 39 38 36 34 31 28 27 29 29 29 28 25 25 27 28 31 36 39 40 41 45
3 3 4 4 5 6 7 8 9 10 11 12 13 13 14 16 17 18 19 20 21 21 22 22 23 24 26 27 29 31 34 36 38 40 41 42 42 41 40 38 37 37 37 36 37 37 35 35 36 37 38 39 40 41 41 39 38 38 39 38 34 30 28 32 37 38 36 34 32 30 29 30 29 29 27 24 24 25 26 28 30 34 39 42 44
2 2 2 3 5 6 7 8 9 10 11 12 13 14 15 16 17 18 19 20 21 21 21 22 23 24 26 28 30 33 35 37 39 40 41 42 42 41 41 40 40 39 38 36 36 36 35 35 36 37 38 40 41 41 40 38 38 38 37 35 33 30 28 28 32 36 35 33 32 31 31 30 28 27 25 24 24 24 24 26 27 28 34 41 43
2 1 2 3 5 6 7 8 9 10 11 12 13 14 15 16 17 18 19 20 20 21 21 22 22 24 26 28 31 33 35 37 38 39 40 41 41 41 40 40 39 38 36 34 33 34 35 34 34 32 33 36 37 36 35 34 35 37 37 34 30 28 27 25 28 32 33 31 30 30 30 29 27 25 25 24 24 24 24 25 25 25 29 36 42
1 1 2 3 5 6 7 8 9 10 11 12 13 14 15 16 17 18 19 19 19 20 21 21 22 25 27 28 31 33 34 36 37 38 39 40 41 41 40 39 39 37 35 33 34 35 35 34 31 28 27 28 30 29 27 27 28 30 33 34 29 24 22 22 24 27 28 30 32 31 30 28 26 25 25 23 22 23 24 24 24 22 25 30 38
2 2 3 4 5 6 8 8 9 10 11 12 13 14 15 15 16 17 18 18 18 19 20 21 22 24 26 28 30 32 33 35 36 36 38 39 39 40 39 38 38 38 35 33 35 36 36 34 32 29 26 26 27 24 21 20 22 24 28 31 28 23 19 18 21 23 24 28 34 33 28 26 25 25 22 20 20 21 21 22 22 21 22 25 31
Wind_Direction
280 302 315 300 314 338 335 337 330 339 349 342 341 332 321 316 309 301 298 298 298 301 303 305 306 305 303 301 301 300 298 296 293 292 291 292 296 296 297 298 298 297 296 294 292 291 288 285 284 284 285 285 284 284 285 289 294 294 293 295 296 295 291 286 280 276 275 275 274 274 274 272 270 269 267 266 266 267 267 269 271 267 261 255 251
302 319 316 300 345 18 7 360 347 353 1 353 345 331 324 325 319 310 307 305 303 302 300 299 299 301 304 304 304 298 295 296 294 294 291 291 295 297 298 299 299 298 296 292 290 292 290 282 281 281 281 283 282 283 283 285 289 292 292 292 294 294 291 287 282 278 274 272 270 270 270 267 264 262 262 263 264 263 263 264 263 261 259 254 249
325 348 30 11 18 33 28 22 5 356 354 347 337 327 327 326 321 314 308 306 306 303 299 298 297 297 298 301 304 301 298 298 298 299 296 293 297 297 298 299 299 298 296 294 290 292 291 278 276 278 277 279 278 278 281 283 286 289 290 290 292 293 291 288 284 280 274 269 267 265 265 263 259 257 258 260 261 261 259 258 255 254 256 253 248
47 52 75 52 28 33 7 351 345 340 337 335 329 325 324 319 315 310 307 306 304 302 299 297 297 294 291 292 296 297 298 298 298 299 297 298 300 298 298 297 296 295 295 296 290 289 290 276 271 276 276 275 275 274 276 280 283 286 288 290 290 291 291 289 286 282 274 267 263 260 261 259 254 253 255 257 258 259 258 255 251 250 252 251 247
147 136 122 132 98 40 342 331 328 331 329 324 322 322 320 317 313 308 305 303 300 297 295 295 295 293 292 291 290 290 292 295 297 299 298 301 301 297 297 296 294 293 292 294 290 287 289 279 271 273 275 273 273 274 274 276 280 283 286 289 289 289 289 289 288 285 275 265 259 256 257 255 250 249 252 254 256 257 257 254 248 247 248 249 247
153 136 114 107 23 357 340 327 322 326 324 320 321 320 317 315 312 308 305 302 298 297 297 297 297 297 297 295 293 291 290 292 295 298 299 301 301 298 298 297 295 294 292 293 292 288 287 281 275 274 273 272 272 273 274 274 277 280 284 286 286 286 287 288 289 286 276 264 256 254 254 251 246 246 249 252 254 256 258 254 248 247 244 244 244
145 121 55 5 350 342 333 324 321 322 321 321 321 320 318 315 312 309 308 306 303 302 301 301 300 299 298 296 295 294 293 293 295 296 297 299 300 299 300 298 296 295 293 293 294 292 287 279 275 273 271 270 270 271 272 273 275 278 281 283 285 284 285 286 286 285 277 264 255 252 252 249 243 243 247 250 253 255 256 253 249 248 242 239 240
156 220 296 331 331 333 327 320 321 322 323 324 322 321 321 318 315 313 313 311 307 304 302 300 299 298 297 297 297 297 297 296 296 297 297 297 297 298 299 297 295 295 293 293 294 294 289 278 271 271 270 269 269 271 272 272 273 274 276 280 283 282 282 283 284 284 277 264 254 250 250 248 242 240 245 249 252 254 254 252 251 249 242 237 236
203 246 280 311 323 327 319 317 320 323 324 324 323 322 322 322 321 318 318 316 311 307 306 304 302 300 299 299 298 298 298 297 296 296 296 297 297 299 299 296 296 296 293 291 293 296 292 278 268 266 267 269 273 274 273 273 272 271 272 275 280 282 280 280 281 281 276 265 254 249 248 247 243 240 243 248 251 253 252 250 250 250 241 234 233
224 261 296 316 320 318 311 314 318 321 324 323 322 323 323 325 324 324 323 321 319 316 314 312 310 307 305 305 304 303 301 298 296 295 296 299 300 301 301 301 300 298 294 291 292 295 294 281 269 264 265 270 274 274 273 272 271 271 270 271 275 279 279 278 277 278 275 265 255 250 247 247 245 241 241 246 249 252 251 247 248 248 241 232 231
240 275 300 310 312 309 306 312 315 321 322 319 322 325 326 326 329 332 331 329 328 324 321 317 314 313 311 309 309 307 307 305 301 301 302 303 306 305 304 304 302 299 299 296 291 291 292 289 278 269 268 269 270 271 271 270 270 271 271 269 270 275 277 275 274 275 273 266 256 250 247 247 247 243 241 243 248 250 249 247 246 246 241 232 228
264 287 301 307 306 305 304 309 314 321 321 319 325 327 327 329 333 335 332 333 332 326 323 319 317 316 315 315 313 309 310 312 309 309 309 311 313 311 308 308 306 304 301 296 294 292 291 292 289 281 274 270 269 268 267 267 269 271 271 268 269 272 274 272 271 271 271 266 257 250 246 247 248 246 242 242 245 249 248 246 245 244 240 233 228
289 300 308 309 307 306 309 315 317 321 324 325 328 328 328 331 334 334 331 333 331 328 326 323 322 319 319 322 318 313 315 316 314 314 315 317 317 314 312 314 314 311 303 299 301 297 295 295 292 286 280 277 274 269 265 265 268 270 269 267 267 269 269 268 268 268 268 266 259 251 245 246 248 247 243 241 243 246 247 246 245 243 238 232 229
296 304 308 307 308 310 314 319 321 323 326 328 329 329 332 332 332 332 332 332 330 330 329 327 327 325 325 328 324 319 319 321 323 322 320 320 322 322 321 321 319 316 310 310 308 302 302 305 298 294 290 285 279 272 267 264 266 267 265 261 261 262 264 264 264 265 265 264 260 253 245 244 247 248 245 242 241 243 244 245 245 242 238 233 230
301 304 307 306 307 310 314 319 322 326 328 330 330 331 333 333 332 332 332 334 333 335 336 334 330 326 328 330 330 327 323 325 331 331 327 325 326 326 325 322 319 317 317 317 313 305 308 311 306 301 294 287 282 279 274 269 267 267 263 260 260 260 261 262 261 262 262 262 261 255 247 244 246 248 247 243 242 242 241 243 243 240 238 234 231
306 307 308 307 308 311 316 321 324 326 328 330 330 331 333 333 334 334 333 334 335 337 339 340 336 329 328 327 327 328 326 324 328 332 330 326 325 325 325 324 321 321 321 319 315 310 310 312 310 306 297 291 290 286 282 277 271 266 263 263 266 265 264 263 261 259 259 260 261 257 249 246 246 247 247 245 242 242 240 240 241 240 237 235 233
308 308 308 308 310 313 317 322 322 323 326 328 330 332 332 332 334 334 332 332 334 335 336 337 338 335 331 327 324 326 326 323 323 326 328 324 322 322 324 324 323 324 324 321 317 314 314 313 312 309 303 299 295 288 284 281 275 268 264 264 268 265 260 261 260 257 257 257 257 257 252 247 247 247 247 246 244 243 241 239 239 238 237 236 235
306 305 306 308 311 313 315 317 315 317 323 326 328 330 329 330 331 331 329 329 330 332 332 333 334 334 331 329 327 323 323 324 323 323 324 324 321 319 319 319 319 321 322 323 321 318 317 315 314 311 307 304 300 293 288 283 276 270 266 266 266 261 256 258 259 255 255 255 254 254 252 248 247 247 246 245 244 243 241 239 238 237 236 236 236
305 302 303 306 308 311 310 308 306 309 318 323 326 327 327 328 328 327 327 326 326 327 327 328 328 328 327 327 326 323 323 325 322 319 317 318 319 316 315 315 315 316 317 319 320 320 319 318 316 315 312 308 303 297 293 288 279 271 269 268 264 258 254 256 258 256 254 254 253 252 251 248 246 247 247 245 244 243 241 239 238 237 236 235 237
305 302 304 307 309 309 306 304 302 304 312 320 323 324 323 324 323 322 322 322 322 322 323 323 322 322 322 321 321 320 321 321 319 316 313 312 312 309 308 310 312 314 315 315 317 319 319 316 315 316 317 313 308 301 297 292 287 281 278 276 271 262 253 250 254 256 254 253 253 253 251 249 247 246 247 246 243 243 242 241 239 238 236 235 238
305 305 307 309 309 306 304 303 301 302 306 311 315 316 317 319 318 318 318 318 319 319 319 319 318 317 316 316 316 315 316 315 313 312 311 311 311 309 307 306 307 312 314 313 313 315 315 313 312 314 315 313 312 307 300 294 289 287 282 278 277 272 258 248 248 252 253 253 253 252 252 252 248 244 245 246 244 242 242 241 240 239 237 236 238
303 305 307 306 304 303 301 300 299 300 303 306 311 314 315 316 315 315 315 315 316 317 316 316 316 315 314 313 312 311 310 309 308 308 308 306 306 307 308 307 306 310 311 309 309 310 310 309 310 312 311 310 311 309 305 299 292 287 283 278 276 275 267 255 250 248 249 252 252 251 250 248 245 243 244 245 243 242 241 241 240 239 237 237 239
301 302 302 301 302 301 299 300 301 303 306 310 313 315 316 316 316 315 315 315 315 314 313 313 312 312 311 310 310 309 308 307 306 305 304 303 302 304 305 304 304 306 306 304 304 306 306 305 306 308 308 306 304 303 303 300 296 292 287 282 278 275 271 265 256 248 245 247 248 249 247 244 244 243 242 242 242 242 242 241 240 238 236 237 239
298 299 301 301 303 303 304 305 307 309 312 315 316 317 318 318 318 317 316 315 313 312 310 309 308 307 306 306 306 305 305 304 304 303 302 302 302 302 302 302 301 302 302 301 299 299 299 302 305 306 306 304 301 299 297 295 297 299 292 286 283 277 272 269 263 251 244 243 244 245 245 243 243 242 241 241 242 242 243 243 241 239 236 237 239
296 299 302 305 308 309 310 312 313 315 317 318 320 321 322 322 321 320 318 315 313 311 309 307 306 304 303 302 301 300 300 300 300 300 300 300 300 299 300 299 299 298 298 296 295 295 295 297 300 301 302 301 298 298 297 294 295 298 295 290 287 283 276 272 270 260 248 242 239 241 243 241 240 240 239 240 241 241 242 243 242 240 238 237 238
301 304 307 309 312 313 314 316 318 319 321 322 325 325 324 324 322 321 319 316 314 311 309 307 305 303 302 300 299 298 297 297 297 297 297 297 297 296 297 296 295 295 295 294 293 294 293 291 289 290 293 295 296 296 295 290 287 289 292 290 288 285 282 278 275 272 260 246 239 238 241 242 240 240 238 237 240 240 241 242 242 241 239 237 237
304 307 310 311 314 316 316 318 319 321 323 325 326 325 324 324 323 322 319 316 314 312 311 309 307 305 303 301 300 298 297 297 297 296 295 295 295 295 295 296 295 294 293 291 290 290 290 289 286 283 283 285 288 290 289 285 282 284 286 287 288 286 284 283 278 276 269 255 243 238 239 241 241 240 239 237 239 239 239 240 241 240 238 238 237
306 308 311 312 314 315 316 317 319 321 324 324 325 325 325 324 323 321 319 316 314 312 311 309 308 307 305 303 302 301 300 299 297 296 295 294 294 294 294 295 295 295 294 292 290 289 287 286 285 281 278 278 278 279 283 287 288 286 282 282 285 285 284 284 280 276 272 264 251 240 236 240 240 238 238 237 236 237 238 240 241 239 237 238 238
307 308 310 311 312 312 313 315 318 321 323 324 326 326 326 325 323 321 319 316 314 313 312 311 310 310 308 307 306 305 305 303 301 298 297 295 294 293 293 293 293 294 294 294 293 292 288 285 284 281 277 276 277 276 277 281 286 286 283 282 283 284 284 282 279 276 274 270 261 247 239 239 239 238 238 237 234 233 236 239 240 238 235 236 237
304 306 307 307 308 309 311 314 317 321 323 325 327 328 328 326 324 322 320 318 318 317 318 318 318 318 317 317 316 316 315 313 310 307 305 303 301 298 296 295 294 294 294 293 294 295 293 288 285 283 279 276 276 276 274 275 278 279 279 281 283 283 282 280 277 275 274 272 268 258 247 241 238 237 238 238 237 234 233 237 238 236 235 236 237
302 303 303 304 306 307 309 314 318 321 324 326 328 329 329 327 326 325 325 326 327 327 328 329 329 329 328 326 325 324 323 320 318 315 313 312 310 308 306 304 301 298 297 296 296 297 296 292 288 284 282 279 276 275 274 273 273 273 271 275 279 279 278 277 275 272 272 271 270 266 256 246 239 238 237 237 237 237 235 236 238 236 235 236 236
299 301 303 304 305 307 310 315 318 321 324 327 328 330 330 330 331 331 333 335 335 335 335 335 334 333 331 329 328 326 324 322 320 318 316 315 314 313 311 309 307 304 303 301 300 301 300 296 294 290 285 281 277 275 275 273 272 271 271 271 272 273 276 277 275 271 270 269 269 268 265 254 244 239 238 237 236 238 237 235 237 239 236 235 235
299 302 303 304 305 307 311 314 318 322 324 327 329 331 333 334 335 336 337 338 338 337 336 335 334 332 331 329 328 326 325 323 321 319 318 317 315 314 312 310 309 307 305 303 302 302 301 298 297 296 291 286 281 277 275 273 272 270 271 271 269 267 270 273 273 271 269 267 266 266 266 263 252 242 239 238 236 237 238 235 234 237 237 236 234
299 301 302 303 304 307 311 315 319 322 325 328 331 333 334 335 336 337 338 338 337 336 335 333 333 332 331 330 329 328 326 324 323 321 320 319 317 315 313 311 309 308 306 304 303 302 302 300 298 296 295 291 287 283 277 274 272 270 270 271 269 265 263 265 269 270 269 266 265 265 264 265 261 249 240 238 238 237 237 236 232 232 235 236 235
298 299 300 301 303 307 312 316 320 323 327 331 332 333 333 334 336 337 338 337 336 335 335 334 334 334 333 332 331 330 328 326 324 323 322 320 318 316 314 312 310 309 307 305 303 302 302 301 299 297 296 293 290 287 282 277 274 271 269 268 268 266 262 261 263 266 267 266 265 265 264 263 266 259 244 237 239 240 237 236 234 231 232 234 234
295 297 300 301 305 310 314 318 321 325 329 331 332 333 334 336 338 339 339 338 337 337 336 336 336 335 335 333 332 330 329 327 325 324 322 321 319 316 314 313 311 309 308 305 304 303 302 301 300 298 296 295 292 290 287 282 276 272 269 266 265 265 264 261 260 260 263 266 266 264 264 263 264 265 252 238 237 240 238 236 236 232 231 232 232
293 297 300 303 308 312 316 320 323 327 330 332 333 335 337 339 341 340 340 339 338 338 338 338 338 337 335 334 333 331 330 328 326 325 324 322 321 318 316 314 312 310 308 306 304 302 302 301 301 299 297 295 293 292 289 286 280 275 270 267 264 262 262 261 259 259 260 264 267 264 263 263 263 267 262 245 236 237 238 237 237 234 232 231 231
294 298 301 306 311 315 318 322 325 328 331 335 337 339 341 342 341 341 340 339 340 340 340 339 339 338 338 337 337 335 333 332 330 328 327 326 324 321 319 317 314 312 310 307 305 303 301 301 300 300 298 296 295 293 291 287 283 279 274 268 262 258 257 256 255 256 257 259 264 264 262 262 262 266 269 256 241 237 238 240 238 234 232 230 229
295 300 304 309 314 317 320 323 325 329 334 339 342 343 343 342 341 340 340 341 342 342 342 342 342 342 343 342 341 339 337 335 333 331 329 328 326 324 322 320 317 315 313 311 308 306 304 302 302 301 299 297 296 295 294 289 284 281 277 271 264 258 255 256 254 252 252 255 260 262 261 259 258 261 268 266 249 237 237 244 240 232 230 230 228
297 302 308 314 318 320 321 323 327 333 339 343 345 343 342 341 340 341 343 344 344 344 345 346 347 346 345 344 343 342 340 338 336 334 331 329 328 326 324 322 320 318 316 314 311 309 307 306 305 304 302 300 298 297 296 293 288 282 276 272 268 260 253 252 252 250 249 250 256 261 260 256 256 258 263 268 259 240 236 245 241 229 227 229 227
300 307 312 317 320 320 322 325 331 337 342 344 343 341 341 341 342 344 347 347 347 348 349 349 348 347 345 343 343 343 342 341 339 337 336 333 332 330 328 325 323 320 318 316 313 311 309 308 308 308 306 304 303 300 298 297 294 289 279 270 266 261 253 248 248 249 249 248 252 258 258 255 255 258 260 264 263 247 238 240 237 230 228 228 226
304 310 316 320 321 322 323 327 334 340 343 342 341 341 341 342 344 347 349 350 350 351 351 349 347 345 344 343 343 342 341 341 340 341 341 340 339 336 334 330 327 325 322 319 317 314 312 311 311 311 309 308 308 306 303 301 299 295 288 277 267 260 253 248 245 246 248 249 250 254 256 254 253 256 259 260 259 253 245 241 236 234 231 228 225
305 313 320 324 325 325 326 331 337 341 342 342 342 342 343 344 347 350 351 352 352 351 350 348 346 345 344 343 342 342 341 341 343 346 347 348 346 342 338 334 331 329 327 324 322 319 316 314 313 313 311 310 309 308 306 303 300 297 293 286 275 262 253 249 246 242 244 249 251 252 254 254 252 253 256 257 253 251 250 248 244 240 236 231 226
305 318 328 330 329 328 329 334 338 341 342 343 343 343 344 346 349 351 352 352 352 350 348 347 347 346 345 345 344 344 345 347 349 352 353 353 351 347 342 338 335 332 331 329 327 324 320 317 315 314 312 310 309 309 307 305 301 298 294 289 281 269 256 249 246 241 237 242 248 252 253 252 251 251 251 251 249 248 249 251 250 247 242 236 230
305 326 330 328 327 327 332 335 338 341 344 344 344 343 345 348 350 350 351 351 349 348 347 347 348 348 347 348 349 349 351 353 355 356 356 356 354 352 349 344 339 335 334 333 332 329 325 321 318 317 315 314 312 310 309 307 303 300 295 290 284 273 259 251 247 241 233 234 244 252 252 249 249 251 250 250 252 252 251 250 250 250 246 240 234
297 316 320 321 324 329 333 336 339 342 344 343 342 343 345 348 350 350 350 349 348 348 348 348 348 350 351 351 353 355 357 359 360 359 359 357 356 356 354 350 346 343 340 338 338 336 331 327 324 322 320 318 315 313 312 309 303 299 296 292 288 278 263 251 247 241 231 229 241 250 249 246 247 249 249 251 255 256 254 251 248 249 249 244 237
276 297 312 320 329 332 332 334 338 341 341 341 341 344 347 349 350 350 349 348 348 347 348 348 349 351 353 355 358 0 2 3 3 2 0 359 359 358 357 354 352 350 348 347 345 341 338 335 332 328 325 323 319 316 315 313 307 301 296 292 289 283 267 250 243 241 233 228 236 246 248 246 246 247 247 250 256 257 257 257 254 250 248 245 239
245 280 320 327 329 328 329 333 338 339 338 339 342 346 349 350 350 350 350 349 347 346 347 350 352 354 357 0 3 5 6 6 5 3 1 1 1 360 359 357 356 355 353 352 349 346 344 341 336 332 327 324 321 319 317 316 313 308 303 295 287 280 271 254 241 237 233 227 231 242 249 248 245 245 245 247 254 257 257 261 263 259 253 245 239
212 290 323 322 320 320 327 333 336 337 337 340 345 349 350 351 352 351 350 348 346 347 348 351 355 360 3 6 7 8 8 8 6 5 3 3 2 1 1 0 358 355 353 353 353 354 352 347 340 332 326 324 323 321 318 316 313 310 309 305 293 278 271 261 244 233 228 224 227 238 250 250 243 241 242 245 251 254 256 258 261 263 259 246 237
195 281 296 302 308 316 327 333 333 335 338 342 348 350 350 352 353 351 349 347 347 349 352 354 0 6 8 10 10 10 10 10 8 6 5 5 4 4 3 2 0 356 353 355 359 359 356 351 344 336 329 329 331 327 320 317 313 307 305 307 304 290 275 263 247 231 222 222 228 236 244 244 240 239 241 243 247 249 253 256 256 259 262 251 239
207 254 275 290 307 320 328 330 331 334 341 347 349 351 351 352 353 350 348 347 349 353 356 0 7 11 11 12 13 12 12 12 9 7 8 8 7 6 5 5 5 1 358 3 6 2 357 353 350 346 342 341 342 341 338 333 325 311 301 302 306 303 288 270 253 233 217 222 231 235 237 236 235 238 238 238 245 248 251 257 259 261 265 260 248
Height
3170 3172 3173 3172 3171 3171 3171 3171 3171 3171 3171 3170 3170 3170 3169 3169 3169 3169 3169 3169 3169 3168 3168 3168 3168 3167 3167 3166 3166 3165 3164 3165 3165 3165 3163 3161 3161 3161 3161 3161 3160 3159 3159 3158 3158 3157 3157 3157 3156 3156 3155 3155 3155 3154 3154 3153 3153 3153 3152 3152 3151 3151 3150 3149 3149 3148 3147 3147 3147 3146 3146 3147 3147 3147 3147 3147 3147 3148 3148 3148 3148 3148 3149 3149 3149
3170 3171 3172 3171 3170 3170 3170 3171 3170 3170 3170 3170 3170 3169 3169 3169 3168 3168 3168 3168 3167 3167 3167 3167 3167 3167 3166 3165 3165 3164 3163 3163 3163 3163 3162 3160 3159 3159 3159 3158 3158 3157 3156 3156 3155 3155 3155 3155 3155 3154 3154 3153 3153 3153 3152 3152 3151 3151 3151 3151 3150 3150 3149 3149 3148 3147 3146 3146 3145 3145 3145 3145 3146 3146 3146 3147 3147 3147 3147 3147 3147 3148 3148 3148 3148
3169 3170 3171 3170 3169 3169 3170 3170 3170 3170 3170 3170 3169 3169 3168 3168 3167 3167 3167 3166 3166 3166 3166 3165 3165 3166 3165 3164 3164 3163 3162 3161 3161 3161 3161 3159 3158 3157 3157 3156 3156 3155 3154 3153 3153 3153 3152 3152 3152 3153 3152 3152 3152 3151 3151 3150 3150 3150 3150 3149 3149 3149 3148 3148 3147 3146 3145 3145 3144 3144 3144 3144 3145 3145 3145 3146 3146 3146 3146 3146 3146 3147 3147 3148 3148
3169 3170 3170 3169 3169 3169 3170 3170 3170 3169 3169 3169 3168 3168 3167 3167 3166 3166 3166 3165 3165 3165 3164 3164 3164 3164 3164 3164 3163 3162 3161 3159 3159 3159 3158 3158 3157 3156 3155 3154 3153 3153 3152 3152 3151 3151 3150 3150 3150 3151 3151 3150 3150 3150 3149 3149 3149 3148 3148 3148 3148 3147 3147 3146 3146 3145 3144 3144 3143 3143 3143 3143 3143 3144 3144 3145 3145 3145 3145 3145 3146 3146 3147 3147 3147
3169 3169 3169 3169 3169 3170 3170 3170 3169 3169 3168 3168 3167 3166 3166 3165 3165 3165 3165 3164 3164 3164 3163 3163 3162 3162 3162 3162 3161 3161 3160 3158 3157 3156 3156 3156 3155 3154 3153 3152 3151 3151 3150 3150 3149 3149 3148 3148 3148 3148 3149 3149 3148 3148 3148 3147 3147 3147 3146 3146 3146 3146 3146 3145 3144 3144 3143 3142 3142 3142 3142 3142 3142 3143 3143 3144 3144 3144 3145 3145 3145 3145 3146 3146 3147
3168 3168 3169 3169 3169 3170 3170 3169 3169 3168 3168 3167 3166 3165 3165 3164 3164 3164 3163 3163 3162 3162 3162 3161 3161 3160 3160 3160 3160 3159 3159 3157 3156 3155 3154 3153 3153 3151 3151 3151 3149 3149 3148 3148 3147 3147 3147 3146 3146 3147 3147 3147 3146 3146 3146 3146 3145 3145 3145 3145 3145 3144 3144 3144 3143 3142 3142 3141 3141 3141 3141 3141 3141 3141 3142 3143 3143 3143 3144 3144 3144 3144 3145 3146 3146
3168 3168 3168 3169 3169 3169 3169 3169 3168 3168 3167 3166 3165 3165 3164 3164 3163 3163 3162 3162 3161 3160 3160 3160 3159 3159 3158 3158 3158 3157 3157 3156 3155 3154 3152 3151 3150 3149 3148 3148 3147 3147 3146 3145 3145 3145 3145 3144 3144 3145 3145 3145 3145 3144 3144 3144 3144 3144 3143 3143 3143 3143 3143 3142 3142 3141 3141 3140 3140 3140 3140 3140 3140 3140 3141 3141 3142 3142 3143 3143 3143 3144 3144 3145 3146
3168 3168 3168 3169 3168 3168 3168 3168 3167 3167 3166 3165 3165 3164 3163 3163 3162 3161 3161 3160 3159 3159 3158 3158 3157 3157 3157 3156 3156 3156 3155 3154 3153 3152 3151 3149 3148 3147 3146 3145 3145 3145 3144 3143 3143 3143 3142 3142 3142 3142 3143 3143 3143 3142 3142 3142 3142 3141 3142 3141 3141 3141 3141 3141 3140 3140 3139 3139 3139 3139 3139 3139 3139 3139 3140 3140 3141 3141 3142 3142 3143 3143 3143 3144 3145
3168 3168 3168 3168 3168 3168 3167 3167 3166 3165 3165 3164 3163 3162 3162 3161 3161 3160 3159 3158 3158 3157 3156 3156 3156 3155 3155 3154 3154 3153 3153 3152 3151 3150 3149 3148 3146 3145 3144 3143 3142 3142 3142 3142 3141 3141 3140 3140 3140 3140 3141 3141 3141 3141 3140 3140 3139 3139 3140 3140 3140 3140 3139 3139 3139 3138 3138 3137 3137 3137 3138 3138 3138 3138 3138 3139 3139 3140 3141 3141 3142 3142 3143 3143 3144
3168 3167 3168 3168 3167 3167 3166 3166 3165 3164 3163 3163 3162 3161 3161 3160 3159 3159 3157 3157 3156 3155 3155 3154 3153 3153 3153 3152 3151 3151 3151 3150 3149 3148 3147 3146 3145 3144 3143 3141 3140 3140 3140 3140 3140 3139 3138 3138 3138 3138 3138 3138 3138 3138 3138 3138 3138 3137 3138 3138 3138 3138 3138 3137 3137 3137 3136 3136 3136 3136 3136 3137 3137 3137 3137 3137 3138 3139 3139 3140 3141 3141 3142 3143 3143
3167 3167 3167 3167 3166 3166 3165 3164 3164 3163 3162 3161 3161 3160 3160 3159 3158 3158 3157 3156 3155 3154 3154 3153 3152 3151 3151 3150 3150 3149 3149 3148 3147 3146 3145 3144 3143 3142 3141 3140 3139 3138 3138 3138 3138 3137 3136 3136 3136 3136 3136 3136 3136 3136 3136 3136 3136 3136 3135 3136 3136 3136 3136 3136 3135 3135 3135 3134 3134 3134 3135 3135 3135 3135 3135 3136 3136 3137 3138 3139 3139 3140 3141 3142 3142
3167 3166 3166 3166 3165 3165 3164 3163 3163 3162 3161 3161 3160 3159 3158 3158 3157 3157 3156 3155 3154 3153 3152 3152 3151 3150 3150 3149 3149 3148 3147 3146 3145 3144 3143 3143 3142 3140 3139 3138 3137 3137 3135 3134 3134 3135 3136 3134 3133 3133 3133 3134 3134 3133 3133 3134 3134 3134 3133 3133 3134 3134 3134 3134 3133 3133 3133 3133 3133 3133 3133 3133 3134 3134 3134 3134 3135 3135 3136 3137 3138 3139 3140 3141 3141
3166 3166 3165 3165 3164 3164 3163 3163 3162 3161 3161 3160 3159 3158 3157 3157 3156 3155 3155 3154 3153 3153 3152 3151 3150 3149 3149 3148 3147 3146 3146 3145 3144 3143 3142 3142 3141 3139 3138 3137 3136 3135 3133 3132 3131 3132 3134 3133 3131 3131 3131 3130 3131 3130 3131 3131 3131 3131 3131 3131 3131 3131 3131 3131 3131 3131 3131 3131 3131 3131 3131 3132 3132 3133 3133 3133 3133 3134 3135 3136 3137 3138 3139 3140 3140
3165 3165 3165 3164 3164 3163 3163 3162 3162 3161 3160 3159 3158 3157 3157 3156 3155 3154 3154 3153 3153 3152 3151 3150 3149 3148 3147 3147 3146 3145 3144 3143 3143 3142 3141 3140 3139 3138 3137 3136 3135 3133 3132 3131 3130 3129 3130 3130 3128 3127 3127 3126 3126 3127 3128 3129 3129 3129 3129 3128 3128 3128 3128 3129 3129 3129 3129 3129 3129 3129 3129 3130 3130 3131 3131 3131 3131 3132 3133 3134 3135 3136 3137 3138 3139
3165 3165 3164 3164 3163 3163 3162 3162 3161 3160 3159 3159 3157 3157 3156 3155 3155 3154 3153 3152 3152 3151 3150 3149 3148 3147 3146 3145 3144 3144 3143 3142 3141 3140 3139 3138 3137 3136 3136 3135 3134 3132 3131 3130 3129 3128 3128 3127 3125 3125 3124 3123 3123 3125 3126 3126 3126 3126 3126 3125 3125 3125 3126 3126 3127 3127 3127 3127 3127 3127 3128 3128 3128 3129 3129 3130 3130 3130 3131 3132 3134 3135 3136 3137 3137
3165 3164 3164 3163 3163 3162 3161 3161 3160 3159 3159 3158 3157 3156 3155 3155 3154 3153 3153 3152 3151 3150 3149 3148 3147 3146 3145 3144 3143 3142 3141 3140 3140 3139 3138 3137 3136 3135 3134 3133 3132 3131 3130 3129 3128 3127 3126 3125 3124 3123 3122 3121 3121 3122 3123 3123 3123 3123 3123 3123 3122 3123 3124 3124 3124 3124 3124 3125 3125 3125 3126 3126 3126 3127 3127 3128 3128 3128 3129 3130 3132 3133 3134 3135 3136
3164 3163 3163 3162 3162 3161 3161 3160 3159 3159 3158 3157 3156 3155 3154 3154 3153 3153 3152 3151 3150 3149 3148 3147 3146 3145 3143 3142 3141 3140 3139 3138 3137 3138 3137 3135 3134 3134 3133 3131 3130 3130 3129 3128 3127 3125 3124 3123 3122 3121 3120 3120 3120 3119 3119 3119 3120 3120 3120 3120 3120 3120 3121 3121 3121 3122 3122 3122 3122 3123 3124 3124 3124 3125 3125 3126 3127 3127 3127 3128 3129 3131 3132 3133 3134
3163 3163 3162 3162 3161 3161 3160 3159 3159 3158 3157 3156 3156 3155 3154 3153 3153 3152 3151 3150 3149 3149 3148 3147 3146 3145 3143 3142 3140 3139 3138 3137 3135 3135 3135 3134 3133 3131 3131 3130 3129 3128 3128 3127 3126 3125 3123 3122 3121 3120 3119 3119 3119 3118 3117 3117 3117 3117 3117 3118 3118 3117 3117 3118 3119 3119 3119 3119 3120 3120 3121 3122 3122 3123 3123 3124 3124 3125 3126 3126 3127 3129 3130 3131 3132
3162 3162 3162 3161 3161 3160 3159 3159 3158 3157 3157 3156 3155 3154 3153 3153 3152 3151 3150 3149 3148 3148 3147 3146 3145 3144 3142 3141 3140 3138 3137 3135 3134 3132 3131 3132 3132 3130 3128 3128 3127 3126 3125 3125 3124 3123 3122 3121 3120 3119 3118 3117 3116 3115 3114 3114 3114 3113 3114 3114 3114 3114 3114 3115 3116 3116 3117 3117 3117 3117 3118 3119 3120 3120 3121 3122 3122 3123 3124 3124 3125 3126 3128 3129 3130
3161 3161 3161 3160 3160 3159 3159 3158 3157 3157 3156 3155 3154 3153 3153 3152 3151 3150 3149 3148 3147 3146 3146 3145 3144 3143 3142 3140 3139 3137 3136 3134 3133 3130 3128 3128 3129 3129 3127 3125 3125 3124 3123 3122 3122 3121 3120 3119 3118 3117 3116 3115 3114 3113 3112 3111 3110 3110 3110 3110 3110 3110 3110 3111 3113 3114 3114 3114 3114 3114 3115 3116 3117 3118 3118 3119 3120 3121 3121 3122 3123 3124 3126 3127 3128
3160 3160 3160 3160 3159 3158 3158 3157 3157 3156 3155 3155 3154 3153 3152 3151 3150 3149 3148 3147 3146 3145 3144 3143 3142 3141 3140 3139 3137 3136 3135 3133 3131 3129 3127 3125 3124 3125 3124 3123 3122 3122 3121 3120 3119 3118 3118 3117 3116 3115 3114 3112 3111 3111 3110 3109 3108 3107 3107 3107 3106 3107 3107 3108 3109 3110 3111 3112 3112 3112 3112 3113 3114 3115 3116 3117 3117 3118 3119 3120 3121 3122 3123 3125 3126
3160 3160 3159 3159 3158 3158 3157 3156 3156 3155 3154 3153 3152 3151 3150 3150 3149 3148 3147 3146 3145 3144 3143 3142 3140 3139 3137 3136 3135 3134 3133 3132 3130 3128 3126 3123 3121 3121 3121 3119 3118 3118 3118 3117 3116 3116 3115 3114 3113 3113 3112 3110 3109 3108 3107 3107 3106 3105 3105 3104 3104 3103 3104 3105 3106 3107 3108 3109 3109 3109 3110 3110 3111 3112 3113 3114 3115 3116 3117 3118 3119 3120 3121 3122 3123
3159 3159 3159 3158 3157 3156 3156 3155 3154 3153 3153 3152 3151 3150 3149 3148 3147 3146 3145 3145 3144 3142 3141 3140 3139 3137 3136 3134 3132 3131 3130 3128 3127 3125 3123 3121 3119 3118 3117 3116 3115 3115 3115 3115 3114 3113 3112 3111 3110 3110 3109 3108 3107 3106 3105 3105 3104 3103 3102 3101 3100 3100 3101 3102 3103 3103 3104 3105 3106 3106 3107 3107 3109 3109 3110 3111 3112 3113 3114 3115 3116 3117 3118 3120 3121
3159 3158 3158 3157 3156 3155 3154 3154 3153 3152 3151 3150 3149 3148 3147 3146 3145 3145 3144 3143 3142 3141 3139 3138 3137 3135 3134 3132 3130 3129 3127 3125 3124 3122 3120 3118 3116 3114 3114 3113 3112 3112 3112 3112 3112 3111 3110 3108 3107 3106 3105 3105 3104 3103 3103 3102 3101 3100 3099 3098 3097 3097 3097 3098 3099 3099 3100 3101 3101 3102 3103 3104 3105 3106 3107 3108 3109 3111 3112 3113 3113 3114 3116 3117 3119
3158 3157 3156 3155 3155 3154 3153 3152 3151 3150 3149 3149 3148 3147 3146 3145 3144 3143 3142 3141 3140 3138 3137 3136 3134 3133 3131 3130 3128 3126 3125 3123 3121 3119 3117 3115 3113 3110 3109 3109 3107 3107 3108 3108 3108 3108 3107 3106 3105 3103 3101 3100 3100 3099 3099 3098 3097 3096 3095 3094 3094 3093 3094 3094 3095 3096 3096 3097 3097 3098 3099 3101 3102 3103 3104 3105 3106 3107 3109 3110 3111 3112 3113 3115 3116
3156 3156 3155 3154 3153 3152 3151 3151 3150 3149 3148 3147 3146 3145 3144 3143 3142 3141 3140 3139 3137 3136 3134 3133 3131 3130 3128 3127 3125 3124 3122 3120 3118 3116 3114 3112 3110 3108 3106 3105 3104 3103 3103 3104 3103 3103 3103 3103 3103 3101 3099 3098 3096 3095 3095 3094 3093 3092 3092 3091 3091 3090 3090 3091 3091 3091 3092 3092 3093 3094 3095 3097 3099 3099 3101 3102 3103 3104 3106 3107 3108 3109 3111 3112 3113
3155 3154 3153 3153 3152 3151 3150 3149 3148 3148 3147 3146 3145 3144 3142 3141 3140 3139 3137 3136 3134 3133 3131 3130 3128 3127 3125 3124 3122 3121 3119 3117 3116 3114 3112 3109 3107 3105 3102 3100 3099 3098 3099 3099 3100 3100 3099 3098 3099 3099 3097 3095 3094 3092 3091 3090 3089 3088 3088 3087 3087 3087 3087 3087 3088 3088 3088 3088 3089 3090 3092 3093 3095 3095 3097 3098 3099 3101 3103 3103 3105 3106 3108 3109 3110
3153 3153 3152 3151 3150 3149 3149 3148 3147 3146 3145 3144 3143 3142 3141 3139 3138 3137 3135 3133 3132 3130 3128 3127 3125 3124 3122 3121 3119 3117 3116 3115 3113 3111 3109 3107 3104 3102 3100 3096 3093 3092 3092 3093 3094 3096 3096 3094 3094 3095 3093 3091 3090 3089 3087 3087 3086 3084 3083 3084 3083 3084 3083 3083 3083 3084 3084 3084 3085 3086 3087 3089 3090 3091 3092 3094 3095 3097 3099 3100 3101 3103 3105 3106 3107
3152 3151 3150 3150 3149 3148 3147 3147 3146 3145 3144 3142 3141 3140 3139 3137 3136 3134 3132 3130 3129 3127 3125 3124 3122 3121 3119 3117 3116 3114 3113 3111 3109 3107 3105 3104 3102 3100 3097 3094 3091 3087 3085 3084 3086 3089 3090 3089 3089 3089 3089 3088 3085 3085 3084 3083 3083 3082 3081 3081 3080 3080 3080 3079 3079 3079 3080 3080 3081 3082 3082 3083 3085 3086 3087 3089 3091 3093 3095 3096 3098 3100 3101 3103 3104
3150 3150 3149 3148 3148 3147 3146 3145 3144 3143 3142 3141 3139 3138 3136 3135 3133 3131 3129 3127 3126 3124 3122 3121 3119 3118 3116 3114 3113 3111 3110 3108 3106 3104 3102 3100 3099 3097 3094 3092 3089 3085 3082 3079 3079 3083 3083 3082 3084 3084 3083 3083 3081 3079 3079 3079 3078 3078 3078 3078 3077 3076 3076 3075 3075 3075 3075 3075 3076 3077 3077 3078 3080 3081 3082 3084 3086 3088 3090 3092 3093 3095 3098 3099 3100
3149 3148 3147 3147 3146 3145 3145 3144 3143 3141 3140 3139 3137 3136 3134 3132 3130 3128 3126 3125 3123 3122 3120 3119 3117 3116 3114 3112 3111 3109 3107 3105 3103 3101 3099 3097 3095 3093 3091 3089 3087 3083 3080 3075 3074 3078 3078 3074 3076 3078 3076 3076 3076 3074 3074 3074 3073 3073 3072 3073 3073 3073 3071 3071 3071 3070 3070 3071 3071 3072 3072 3073 3074 3076 3078 3079 3080 3082 3085 3087 3089 3091 3094 3096 3097
3147 3146 3146 3145 3144 3144 3143 3142 3141 3139 3138 3137 3135 3133 3131 3130 3128 3126 3125 3123 3122 3120 3119 3117 3116 3114 3112 3110 3108 3107 3105 3103 3101 3098 3096 3094 3092 3090 3088 3086 3084 3080 3077 3073 3069 3072 3075 3070 3068 3071 3071 3068 3069 3068 3067 3068 3068 3067 3066 3067 3068 3068 3067 3066 3067 3066 3066 3066 3067 3067 3068 3068 3069 3070 3072 3074 3075 3077 3079 3082 3084 3086 3089 3091 3093
3145 3144 3144 3143 3143 3142 3141 3140 3139 3138 3136 3135 3133 3131 3129 3128 3126 3125 3123 3122 3121 3119 3118 3116 3115 3113 3111 3109 3107 3105 3102 3100 3098 3096 3094 3092 3089 3087 3085 3082 3081 3077 3074 3071 3066 3065 3069 3068 3063 3063 3065 3062 3061 3062 3061 3060 3062 3061 3060 3061 3062 3062 3062 3062 3062 3062 3062 3062 3062 3063 3063 3063 3063 3064 3066 3068 3069 3071 3073 3076 3079 3082 3084 3086 3089
3143 3143 3142 3142 3141 3140 3140 3138 3137 3136 3134 3133 3131 3129 3128 3126 3125 3124 3122 3121 3120 3118 3117 3115 3113 3111 3109 3107 3105 3103 3100 3098 3095 3093 3091 3089 3086 3084 3082 3079 3077 3075 3071 3067 3064 3060 3061 3064 3061 3058 3059 3057 3055 3056 3055 3053 3054 3055 3054 3054 3055 3056 3056 3056 3056 3056 3057 3057 3057 3058 3058 3058 3058 3059 3060 3062 3064 3066 3068 3071 3074 3076 3079 3081 3084
3141 3141 3140 3140 3139 3139 3138 3137 3136 3134 3133 3131 3130 3128 3127 3125 3124 3123 3121 3120 3119 3117 3115 3113 3112 3109 3107 3105 3103 3101 3098 3095 3093 3091 3088 3086 3084 3081 3079 3076 3073 3071 3068 3064 3060 3057 3054 3057 3057 3054 3052 3052 3051 3050 3049 3048 3047 3047 3047 3048 3049 3049 3050 3050 3050 3050 3051 3052 3052 3052 3053 3053 3053 3053 3054 3055 3058 3060 3062 3064 3068 3071 3074 3076 3079
3140 3139 3139 3138 3137 3137 3136 3135 3134 3132 3131 3130 3128 3127 3126 3124 3123 3121 3120 3119 3117 3115 3114 3112 3110 3108 3105 3103 3101 3098 3096 3093 3090 3088 3086 3083 3081 3078 3075 3073 3070 3067 3065 3061 3057 3053 3050 3049 3051 3050 3046 3045 3045 3044 3043 3041 3041 3040 3040 3041 3042 3042 3044 3044 3044 3044 3045 3046 3046 3047 3047 3047 3047 3047 3047 3049 3051 3054 3056 3058 3062 3065 3068 3071 3073
3138 3137 3137 3136 3135 3135 3134 3133 3132 3130 3129 3128 3127 3126 3124 3123 3122 3120 3119 3117 3116 3114 3112 3110 3108 3106 3103 3101 3098 3095 3093 3090 3087 3085 3083 3080 3077 3074 3071 3069 3066 3063 3061 3058 3054 3050 3046 3043 3043 3044 3042 3038 3037 3038 3037 3035 3034 3034 3033 3034 3035 3036 3037 3038 3037 3038 3039 3039 3040 3041 3041 3041 3041 3041 3041 3042 3044 3047 3049 3052 3055 3059 3062 3065 3068
3136 3135 3135 3134 3134 3133 3132 3131 3130 3129 3128 3127 3126 3124 3123 3122 3120 3119 3118 3116 3114 3112 3111 3109 3106 3104 3102 3099 3096 3093 3090 3087 3084 3081 3079 3076 3073 3070 3067 3064 3062 3059 3056 3054 3050 3047 3043 3040 3037 3037 3037 3034 3031 3031 3031 3029 3027 3026 3026 3026 3027 3028 3029 3030 3031 3032 3032 3033 3034 3035 3035 3035 3035 3036 3036 3036 3037 3039 3042 3045 3048 3052 3056 3058 3061
3134 3133 3133 3132 3132 3131 3130 3129 3129 3128 3127 3126 3125 3123 3122 3121 3120 3118 3117 3115 3113 3111 3109 3107 3105 3102 3100 3097 3094 3091 3088 3084 3081 3077 3075 3072 3070 3067 3063 3060 3057 3054 3051 3048 3045 3042 3038 3036 3033 3031 3030 3029 3026 3024 3024 3023 3021 3020 3019 3018 3019 3021 3022 3022 3023 3025 3025 3026 3027 3028 3029 3030 3030 3030 3030 3030 3031 3032 3035 3039 3040 3044 3048 3051 3054
3132 3132 3131 3131 3130 3129 3129 3128 3127 3126 3126 3125 3124 3123 3122 3121 3119 3117 3116 3114 3112 3110 3108 3106 3104 3101 3098 3096 3093 3090 3086 3082 3078 3075 3071 3068 3065 3063 3059 3056 3053 3050 3046 3043 3040 3037 3033 3030 3028 3025 3024 3023 3021 3018 3017 3016 3015 3014 3014 3011 3011 3013 3015 3015 3016 3017 3018 3020 3021 3022 3023 3024 3025 3025 3026 3025 3024 3025 3029 3032 3033 3036 3041 3044 3048
3130 3130 3130 3129 3129 3128 3128 3127 3126 3126 3125 3124 3123 3122 3121 3120 3118 3117 3115 3113 3111 3109 3107 3104 3102 3100 3097 3095 3092 3089 3086 3082 3078 3074 3070 3065 3061 3058 3055 3052 3049 3046 3043 3039 3036 3032 3029 3026 3023 3020 3018 3016 3015 3013 3011 3010 3008 3007 3008 3006 3004 3005 3007 3007 3010 3012 3013 3014 3015 3016 3017 3019 3020 3021 3021 3020 3019 3020 3023 3025 3027 3029 3034 3038 3042
3129 3128 3128 3128 3127 3127 3127 3126 3126 3125 3124 3123 3122 3121 3120 3119 3118 3116 3114 3113 3110 3108 3106 3104 3101 3099 3096 3094 3091 3089 3086 3083 3079 3075 3070 3065 3060 3056 3051 3047 3044 3040 3037 3035 3032 3028 3025 3022 3019 3016 3013 3011 3009 3007 3004 3004 3003 3000 3000 3000 2998 2998 2999 2999 3002 3006 3008 3009 3009 3010 3011 3013 3014 3015 3015 3015 3016 3017 3017 3019 3021 3024 3027 3031 3035
3127 3127 3127 3127 3126 3126 3126 3125 3125 3124 3123 3122 3121 3120 3119 3118 3117 3115 3113 3112 3110 3107 3105 3103 3101 3098 3096 3093 3090 3088 3085 3081 3078 3074 3070 3065 3061 3056 3051 3047 3042 3038 3033 3030 3027 3024 3020 3018 3015 3012 3009 3006 3004 3002 2999 2997 2996 2994 2993 2992 2992 2992 2993 2992 2994 2999 3003 3004 3004 3004 3006 3007 3009 3009 3010 3010 3012 3013 3013 3014 3017 3020 3022 3025 3029
3126 3126 3125 3126 3126 3125 3125 3124 3124 3123 3122 3121 3120 3119 3118 3117 3116 3114 3113 3111 3109 3107 3105 3102 3100 3098 3095 3092 3089 3086 3083 3079 3075 3072 3068 3064 3060 3056 3052 3047 3043 3038 3034 3029 3024 3020 3017 3013 3011 3008 3005 3002 2999 2998 2994 2991 2988 2987 2986 2986 2985 2985 2986 2986 2986 2991 2998 3000 2999 2999 3000 3002 3003 3004 3005 3006 3008 3009 3010 3012 3013 3015 3017 3019 3023
3124 3124 3124 3124 3124 3124 3124 3124 3123 3122 3121 3120 3119 3118 3117 3116 3115 3113 3112 3110 3108 3106 3104 3102 3099 3097 3094 3091 3088 3085 3081 3077 3073 3069 3065 3062 3058 3055 3051 3047 3043 3038 3034 3030 3025 3020 3015 3011 3007 3004 3001 2997 2994 2992 2990 2986 2982 2979 2978 2978 2979 2978 2978 2980 2981 2984 2991 2994 2993 2994 2994 2996 2999 2999 3000 3002 3004 3005 3006 3008 3010 3010 3011 3014 3017
3123 3123 3123 3123 3123 3123 3123 3123 3122 3121 3121 3120 3119 3118 3116 3115 3114 3112 3110 3109 3107 3105 3103 3101 3099 3096 3093 3090 3087 3083 3079 3075 3071 3067 3063 3059 3055 3051 3048 3044 3040 3036 3032 3028 3024 3019 3014 3009 3005 3001 2998 2994 2990 2987 2985 2981 2977 2974 2971 2970 2971 2972 2972 2973 2975 2978 2983 2987 2988 2989 2990 2992 2994 2995 2996 2999 3000 3000 3002 3003 3005 3006 3007 3008 3011
3122 3122 3122 3122 3122 3123 3122 3122 3121 3121 3120 3119 3118 3117 3116 3114 3113 3111 3110 3108 3106 3104 3102 3100 3098 3095 3092 3088 3085 3081 3077 3074 3070 3066 3062 3058 3053 3049 3045 3041 3037 3033 3029 3025 3021 3016 3012 3007 3002 2998 2994 2990 2987 2983 2980 2976 2972 2969 2966 2964 2964 2965 2965 2967 2969 2971 2976 2981 2984 2985 2985 2987 2989 2990 2992 2995 2995 2996 2997 2998 2999 3001 3002 3003 3005
3121 3121 3121 3121 3122 3122 3122 3121 3121 3120 3119 3118 3117 3116 3115 3113 3112 3110 3109 3107 3105 3104 3102 3099 3097 3094 3090 3087 3083 3080 3076 3072 3069 3065 3061 3057 3053 3048 3044 3040 3036 3032 3028 3024 3020 3015 3011 3006 3001 2996 2992 2987 2984 2980 2975 2972 2968 2965 2962 2960 2959 2959 2959 2960 2963 2966 2970 2976 2979 2981 2981 2983 2985 2986 2988 2990 2991 2992 2993 2994 2994 2995 2996 2998 3000
3120 3120 3121 3121 3121 3122 3121 3121 3120 3119 3118 3118 3116 3115 3114 3113 3111 3110 3108 3107 3105 3103 3101 3098 3096 3092 3089 3086 3082 3079 3076 3072 3069 3065 3061 3057 3053 3048 3044 3040 3036 3032 3028 3024 3020 3015 3011 3006 3001 2997 2992 2987 2983 2978 2973 2970 2966 2962 2958 2955 2954 2954 2954 2955 2958 2961 2966 2971 2975 2976 2977 2978 2980 2982 2983 2985 2986 2988 2989 2989 2990 2991 2991 2992 2995
3119 3120 3120 3121 3121 3121 3121 3120 3119 3119 3118 3117 3115 3114 3113 3112 3111 3109 3108 3106 3104 3102 3100 3097 3094 3091 3088 3085 3082 3079 3076 3072 3069 3065 3061 3057 3053 3048 3044 3040 3036 3032 3027 3022 3018 3014 3010 3007 3002 2997 2993 2987 2982 2977 2972 2968 2964 2960 2955 2952 2950 2950 2951 2952 2953 2957 2962 2967 2968 2969 2971 2973 2976 2978 2979 2980 2982 2984 2984 2985 2986 2987 2988 2988 2990
3119 3120 3120 3121 3121 3120 3120 3119 3119 3118 3117 3116 3115 3114 3113 3111 3110 3109 3108 3106 3104 3102 3099 3096 3093 3091 3088 3085 3082 3079 3076 3073 3070 3066 3062 3058 3053 3049 3044 3040 3036 3032 3027 3021 3016 3013 3009 3005 3000 2996 2991 2986 2981 2976 2971 2967 2963 2959 2954 2951 2949 2948 2950 2951 2952 2954 2959 2962 2962 2964 2968 2971 2972 2974 2975 2977 2979 2980 2981 2982 2983 2984 2984 2984 2984